User: anonymous   Login
Location: Unspecified
(0.0000°N, 0.0000°E)
Time: 04:18:02
(UTC+00:00)
Language:

APRIZESAT 6 - Orbit

View from above orbital plane
View from above orbital plane
View from above satellite
View from above satellite

Ground track
Ground track

The orbit data is extracted from the following two-line orbital elements,

1 37793U 11044F   23265.59239792  .00001341  00000-0  21076-3 0  9991
2 37793  98.3378 136.9751 0046717  31.8248  28.1610 14.73621899649908
Epoch (UTC): 22 September 2023 14:13:03
Eccentricity: 0.0046717
inclination: 98.3378°
perigee height: 617 km
apogee height: 682 km
right ascension of ascending node: 136.9751°
argument of perigee: 31.8248°
revolutions per day: 14.73621899
mean anomaly at epoch: 28.1610°
orbit number at epoch: 64990

The dashed part of the orbit path shows where the satellite is in the earth's shadow,  

DLR